Miscellaneous Local Product
Issued by NWS North Platte, NE

Home | Current Version | Previous Version | Text Only | Print | Product List | Glossary On
Versions: 1 2 3 4 5 6 7 8 9 10 11 12 13 14 15 16 17 18 19 20 21 22 23 24 25 26 27 28 29 30 31 32 33 34 35 36 37 38 39 40 41 42 43 44 45 46 47 48 49 50
000
AXUS43 KLBF 271110
MISLBF


WESTERN AND NORTH CENTRAL NEBRASKA HOURLY WEATHER ROUNDUP
NATIONAL WEATHER SERVICE NORTH PLATTE NE
600 AM CDT WED AUG 27 2014

***STATIONS NOT REPORTING VARIABLES SUCH AS SKY/WEATHER OR
PRESSURE ARE PROVIDED BY THE NEBRASKA DEPARTMENT OF
ROADS...RAWS...AND APRS NETWORKS...AND ARE NOT UNDER
NATIONAL WEATHER SERVICE QUALITY CONTROL***

...OBSERVATIONS IN AND NEAR THE EASTERN PANHANDLE OF NEBRASKA...

CITY           SKY/WX    TMP DP  RH WIND       PRES   REMARKS
PINE RIDGE     FOG       57  57 100 MISG      30.13R VSB 1/2
CHADRON        CLOUDY    62  58  86 E3        30.12F
ALLIANCE       MOCLDY    62  61  96 E3        30.11F
SIDNEY         PTCLDY    63  57  81 S5        30.13F
WHITECLAY        N/A     61  59  94 E3          N/A
RUSHVILLE        N/A     62  60  94 SE16        N/A
GORDON           N/A     67  67  99 CALM        N/A
CRESCENT LAKE    N/A     64  62  93 SE6         N/A
LISCO            N/A     69  63  81 E8          N/A
BIG SPRINGS      N/A     66  63  91 CALM        N/A
$$

...OBSERVATIONS IN NORTH CENTRAL NEBRASKA...

CITY           SKY/WX    TMP DP  RH WIND       PRES   REMARKS
VALENTINE      CLOUDY    68  67  96 SE5       30.12S
THEDFORD       CLOUDY    68  67  98 CALM      30.11F
AINSWORTH      HVY RAIN  66  65  96 SE6       30.11F
O`NEILL        CLOUDY    67  65  96 SE10      30.10F
ORD            CLOUDY    67  66  97 CALM      30.10F FOG
BROKEN BOW     CLOUDY    69  67  93 E5        30.10S FOG
BROWNLEE         N/A     69  67  93 S7          N/A
SPRINGVIEW       N/A     68  66  93 CALM        N/A
ROSE             N/A     70  70  99 E6          N/A
NEWPORT          N/A     68  68  99 S8          N/A
SARGENT          N/A     67  66  98 CALM        N/A
COMSTOCK         N/A     74  73  99 CALM        N/A
CHAMBERS         N/A     64  63  96 NE3         N/A
$$

...OBSERVATIONS IN SOUTHWEST NEBRASKA AND FAR NORTHEAST COLORADO...

CITY           SKY/WX    TMP DP  RH WIND       PRES   REMARKS
WRAY             N/A    N/A N/A N/A E7        30.13S
HOLYOKE        FAIR      63  61  94 SE8       30.12F
IMPERIAL       MOCLDY    64  62  93 CALM      30.11F
OGALLALA       CLOUDY    62  61  96 CALM      30.10F
NORTH PLATTE   CLOUDY    66  64  93 SE3       30.04F
MCCOOK         CLOUDY    66  65  96 SE7       30.10S
LEXINGTON      CLOUDY    68  67  96 S8        30.08S
PAXTON           N/A     67  65  93 CALM        N/A
SUTHERLAND       N/A     65  62  90 CALM        N/A
BRADY            N/A     65  63  93 CALM        N/A
GOTHENBURG       N/A     68  64  85 NE3         N/A
CALLAWAY         N/A     67  66  98 S3          N/A
$$

...SOME WEATHER OBSERVATIONS FROM AROUND THE REGION...

CITY           SKY/WX    TMP DP  RH WIND       PRES   REMARKS
DENVER         MOCLDY    60  56  86 SW3       30.15F
LARAMIE        CLOUDY    53  45  74 NE5       30.26F
CHEYENNE       MOCLDY    57  52  83 N5        30.21F
SCOTTSBLUFF    MOCLDY    61  60  97 CALM      30.12F
RAPID CITY     MOCLDY    58  54  86 NW3       30.13F
PIERRE         CLOUDY    61  57  87 E7        30.10S
WINNER         CLOUDY    67  65  93 S9        30.10F
SIOUX FALLS    CLOUDY    60  56  86 E5        30.14F
OMAHA          MOCLDY    68  64  87 VRB6      30.09R
GRAND ISLAND   LGT RAIN  69  66  90 W9        30.13S
KANSAS CITY    MOCLDY    74  72  93 SE6       30.07R
WICHITA        MOCLDY    73  67  81 NW5       30.08R
HAYS           CLOUDY    72  64  78 W5        30.10S
LIBERAL        CLOUDY    66  61  82 E13G18    30.14S
GOODLAND       CLOUDY    64  63  96 E6        30.15R
$$



USA.gov is the U.S. government's official web portal to all federal, state and local government web resources and services.